EW0413 Weather Reports


time (UTC)temp
C
wind
direction
speed
KPH
gust
KPH
rain 1hr
cm
rain 24hr
cm
rain mn
cm
humidity
%
barometer
mb
20260509111530 10 188 1.6 8.0 0.00 0.20 0.00 96 1002.7
20260509110029 10 150 3.2 9.7 0.00 0.20 0.00 96 1002.6
20260509104528 10 168 1.6 8.0 0.00 0.20 0.00 96 1002.7
20260509103010 9 176 1.6 4.8 0.00 0.20 0.00 96 1002.7
20260509101610 9 168 1.6 4.8 0.00 0.20 0.00 96 1002.8
20260509100056 8 165 0.0 3.2 0.00 0.20 0.00 96 1003.1
20260509094553 8 172 0.0 3.2 0.00 0.20 0.00 96 1003.0
20260509093034 8 174 0.0 3.2 0.00 0.20 0.00 95 1003.1
20260509091532 8 184 1.6 4.8 0.00 0.20 0.00 95 1003.0
20260509090013 8 233 0.0 8.0 0.00 0.20 0.00 95 1003.2
20260509084516 8 180 3.2 6.4 0.00 0.20 0.00 95 1003.0
20260509083053 8 167 1.6 4.8 0.00 0.20 0.00 95 1003.1
20260509081552 8 174 4.8 8.0 0.00 0.20 0.00 95 1003.2
20260509080035 8 150 0.0 1.6 0.00 0.20 0.00 95 1003.4
20260509074531 8 156 0.0 1.6 0.00 0.20 0.00 95 1003.2
20260509073013 8 155 0.0 3.2 0.00 0.20 0.00 95 1003.1
20260509071517 9 160 0.0 1.6 0.00 0.20 0.00 95 1003.1
20260509070050 9 151 0.0 1.6 0.00 0.20 0.00 94 1003.3
20260509064548 9 151 0.0 1.6 0.00 0.20 0.00 94 1003.5
20260509063037 9 153 0.0 0.0 0.00 0.20 0.00 94 1003.8
20260509061543 10 153 0.0 4.8 0.00 0.20 0.00 94 1003.7
20260509060029 10 150 0.0 3.2 0.00 0.20 0.00 93 1004.0
20260509054526 10 150 0.0 3.2 0.00 0.20 0.00 93 1004.1
20260509053029 10 162 3.2 4.8 0.00 0.20 0.00 93 1004.0
20260509051531 10 150 0.0 3.2 0.00 0.20 0.00 93 1004.2
20260509050027 10 153 0.0 1.6 0.00 0.20 0.00 93 1004.1
20260509044527 11 159 0.0 4.8 0.00 0.20 0.20 93 1004.2
20260509043007 11 156 0.0 1.6 0.00 0.20 0.20 92 1004.5
20260509041503 11 158 0.0 1.6 0.00 0.20 0.20 92 1004.5
20260509040047 11 158 0.0 3.2 0.00 0.20 0.20 91 1004.5
20260509034557 11 157 0.0 4.8 0.00 0.20 0.20 91 1004.6
20260509033028 12 155 1.6 4.8 0.00 0.20 0.20 91 1004.7
20260509031526 12 163 0.0 3.2 0.00 0.20 0.20 90 1004.9
20260509030008 12 161 0.0 1.6 0.00 0.20 0.20 90 1004.9
20260509024508 12 158 0.0 3.2 0.00 0.20 0.20 89 1004.9
20260509023057 12 167 0.0 6.4 0.00 0.20 0.20 88 1004.8
20260509021550 13 169 3.2 6.4 0.00 0.20 0.20 86 1004.8
20260509020031 13 163 1.6 4.8 0.00 0.20 0.20 85 1004.5
20260509014531 13 160 1.6 4.8 0.00 0.20 0.20 84 1004.5
20260509013033 13 142 0.0 4.8 0.00 0.20 0.20 83 1004.5
20260509011516 13 135 0.0 1.6 0.00 0.20 0.20 82 1004.5
20260509010015 14 142 0.0 8.0 0.00 0.20 0.20 81 1004.4
20260509004515 15 162 0.0 9.7 0.00 0.20 0.20 81 1004.4
20260509003017 15 170 1.6 6.4 0.00 0.20 0.20 80 1004.3
20260509001513 16 148 3.2 9.7 0.00 0.20 0.20 78 1004.3
20260509000012 16 195 4.8 12.9 0.00 0.20 0.20 77 1004.2
20260508234516 17 185 3.2 14.5 0.00 0.20 0.20 74 1004.3
20260508233010 18 180 4.8 9.7 0.00 0.20 0.20 70 1004.4
20260508231509 18 72 1.6 6.4 0.00 0.20 0.20 67 1004.4
20260508230059 18 77 0.0 6.4 0.00 0.20 0.20 68 1004.3
20260508224603 19 152 1.6 11.3 0.00 0.20 0.20 68 1004.3
20260508223034 19 356 0.0 6.4 0.00 0.20 0.20 69 1004.4
20260508221530 18 131 0.0 11.3 0.00 0.20 0.20 71 1004.4
20260508220011 18 69 1.6 11.3 0.00 0.20 0.20 70 1004.5
20260508214508 18 153 0.0 4.8 0.00 0.20 0.20 70 1004.7
20260508213007 18 151 1.6 9.7 0.00 0.20 0.20 72 1004.7
20260508211504 18 113 1.6 9.7 0.00 0.20 0.20 74 1004.7
20260508210044 17 148 1.6 9.7 0.00 0.20 0.20 76 1004.8
20260508204543 17 221 1.6 8.0 0.00 0.20 0.20 76 1004.8
20260508203024 17 126 1.6 11.3 0.00 0.20 0.20 75 1004.9
20260508201527 17 160 3.2 16.1 0.00 0.20 0.20 74 1005.2
20260508200002 17 121 0.0 9.7 0.00 0.20 0.20 75 1005.6
20260508194502 17 244 1.6 11.3 0.00 0.20 0.20 75 1005.7
20260508193123 17 143 1.6 8.0 0.00 0.20 0.20 73 1005.6
20260508191551 18 184 0.0 4.8 0.00 0.20 0.20 72 1005.8
20260508190046 17 187 0.0 9.7 0.00 0.20 0.20 72 1006.0
20260508184558 17 165 1.6 6.4 0.00 0.20 0.20 73 1006.1
20260508183042 17 212 0.0 6.4 0.00 0.20 0.20 71 1006.4
20260508181539 17 207 0.0 4.8 0.00 0.20 0.20 72 1006.5
20260508180037 17 268 0.0 4.8 0.00 0.20 0.20 70 1006.6
20260508174552 17 110 0.0 3.2 0.00 0.20 0.20 71 1006.7
20260508173016 17 151 0.0 4.8 0.00 0.20 0.20 71 1006.8
20260508171517 17 161 1.6 4.8 0.00 0.20 0.20 72 1007.3
20260508170055 17 183 3.2 11.3 0.00 0.20 0.20 72 1007.6
20260508164601 17 147 1.6 8.0 0.00 0.20 0.20 71 1007.7
20260508163036 17 153 1.6 9.7 0.00 0.20 0.20 74 1007.8
20260508161540 16 161 3.2 9.7 0.00 0.20 0.20 77 1008.1
20260508160010 15 176 3.2 9.7 0.00 0.20 0.20 76 1008.2
20260508154506 15 107 3.2 9.7 0.00 0.20 0.20 79 1008.4
20260508153046 15 152 1.6 9.7 0.00 0.20 0.20 78 1008.5
20260508151549 15 138 3.2 8.0 0.00 0.20 0.20 81 1008.5
20260508150027 14 193 3.2 9.7 0.00 0.20 0.20 83 1008.6
20260508144523 14 136 1.6 9.7 0.00 0.20 0.20 83 1008.7
20260508143002 13 177 1.6 8.0 0.00 0.20 0.20 85 1008.7
20260508141601 13 161 3.2 8.0 0.00 0.20 0.20 87 1008.8
20260508140041 12 178 3.2 8.0 0.00 0.20 0.20 87 1008.8
20260508134539 12 160 3.2 8.0 0.00 0.20 0.20 90 1008.8
20260508133018 12 152 1.6 8.0 0.00 0.20 0.20 91 1008.8
20260508131516 11 144 1.6 8.0 0.00 0.20 0.20 94 1009.0
20260508124552 10 99 0.0 3.2 0.13 0.20 0.20 95 1009.1
20260508123031 9 120 0.0 0.0 0.15 0.20 0.20 95 1009.3
20260508121533 9 120 0.0 1.6 0.20 0.20 0.20 95 1009.4
20260508120007 8 143 0.0 0.0 0.20 0.20 0.20 94 1009.2
20260508114506 8 167 0.0 1.6 0.08 0.08 0.08 93 1009.3
20260508113108 8 167 0.0 0.0 0.05 0.05 0.05 94 1009.0